This is the latest recevied weather packets stored in our database for station/object KD2PO-13. If no packets are shown the sender has not sent any weather packets the latest 10 day(s).
| Time | Temp. | Humidity | Pressure | Rain* | Wind** | Luminosity | Snow |
|---|---|---|---|---|---|---|---|
| 1778025564 | 13.33° C | 85% | 0 hPa | 0.51 mm | - | - | - |
| 1778025265 | 14.44° C | 88% | 0 hPa | 0.76 mm | - | - | - |
| 1778024964 | 14.44° C | 89% | 0 hPa | 1.52 mm | - | - | - |
| 1778024664 | 14.44° C | 91% | 0 hPa | 1.78 mm | - | - | - |
| 1778024364 | 14.44° C | 92% | 0 hPa | 3.3 mm | - | - | - |
| 1778024064 | 14.44° C | 92% | 0 hPa | 3.3 mm | - | - | - |
| 1778023764 | 15° C | 92% | 0 hPa | 3.3 mm | - | - | - |
| 1778023464 | 15° C | 92% | 0 hPa | 3.05 mm | - | - | - |
| 1778023163 | 15.56° C | 92% | 0 hPa | 3.3 mm | - | - | - |
| 1778022865 | 15.56° C | 93% | 0 hPa | 3.05 mm | - | - | - |
| 1778022565 | 15.56° C | 93% | 0 hPa | 3.05 mm | - | - | - |
| 1778022264 | 15.56° C | 93% | 0 hPa | 3.05 mm | - | - | - |
| 1778021964 | 15.56° C | 92% | 0 hPa | 3.05 mm | - | - | - |
| 1778021664 | 16.11° C | 90% | 0 hPa | 2.79 mm | - | - | - |
| 1778021364 | 16.11° C | 89% | 0 hPa | 2.03 mm | - | - | - |
| 1778021064 | 16.67° C | 87% | 0 hPa | 1.78 mm | - | - | - |
| 1778020764 | 17.22° C | 85% | 0 hPa | 0.25 mm | - | - | - |
| 1778020464 | 17.22° C | 83% | 0 hPa | 0.25 mm | - | - | - |
| 1778020164 | 17.78° C | 81% | 0 hPa | 0.25 mm | - | - | - |
| 1778019864 | 18.33° C | 77% | 0 hPa | 0.25 mm | - | - | - |
| 1778019563 | 18.33° C | 73% | 0 hPa | 0 mm | - | - | - |
| 1778019263 | 18.89° C | 72% | 0 hPa | 0 mm | - | - | - |
| 1778018964 | 18.89° C | 71% | 0 hPa | 0 mm | - | - | - |
| 1778018664 | 18.89° C | 71% | 0 hPa | 0 mm | - | - | - |
| 1778018364 | 18.89° C | 71% | 0 hPa | 0 mm | - | - | - |
* Rain latest hour (hover to see other rain measurements)
** Current wind speed in m/s (hover to see current wind gust speed)